Regional Weather Roundup
Issued by NWS Midland/Odessa, TX

Skip options and go directly to product.
Home | Oldest Version | Previous Version | Current Version | All | Text Only | Save Text | Print | Product List | Glossary Off

Skip product version selection by date and time.   

001
ASUS44 KMAF 010410
RWRMAF
MIDLAND AREA WEATHER ROUNDUP
NATIONAL WEATHER SERVICE MIDLAND TX
1000 PM CST SAT JAN 31 2015

...IN SOUTHWEST TEXAS AND SOUTHEAST NEW MEXICO...

CITY           SKY/WX    TMP DP  RH WIND       PRES   REMARKS
ALPINE         PTCLDY    49  41  74 W6        29.98F
ANDREWS        CLOUDY    48  48 100 CALM      29.89S FOG
ARTESIA        CLOUDY    43  43 100 CALM      29.89S FOG
BIG SPRING     CLOUDY    54  51  92 S7        29.91F
CARLSBAD       FOG       47  45  93 S12       29.87R VSB 3/4
DRYDEN           N/A     53  53 100 NW5       29.94R
FORT STOCKTON  PTCLDY    51  48  89 S9        29.91R
GUAD PASS      MOCLDY    44  42  93 W17       29.94R WCI  36
HOBBS          CLOUDY    46  46 100 S10       29.88S FOG
MARFA          PTCLDY    39  37  93 N7        29.96R WCI  34
MIDLAND AIRPK  CLOUDY    51  51 100 S7        29.89F FOG
MIDLAND INTL   CLOUDY    51  49  92 S10       29.88F
ODESSA         CLOUDY    50  48  93 S8        29.89F FOG
PECOS          PTCLDY    44  43  95 S3        29.90R FOG
PRESIDIO       CLOUDY    55  49  80 NE3       29.91S
SEMINOLE       CLOUDY    47  47 100 S5        29.89S FOG
SNYDER         DRIZZLE  N/A N/A N/A SW8       29.90R
WINK           MOCLDY    48  44  86 VRB3      29.87S FOG
$$
...OTHER STATIONS IN TEXAS...

CITY           SKY/WX    TMP DP  RH WIND       PRES   REMARKS
ABILENE        CLOUDY    53  51  93 S12       29.88S
AMARILLO       CLOUDY    41  40  96 S5        29.83S WCI  38
AUSTIN         CLOUDY    62  62 100 S9        29.94R
BROWNSVILLE    CLOUDY    65  62  90 SE7       30.00S
CORPUS CHRISTI LGT RAIN  66  61  84 SE26G33   29.89F
DALLAS FTW     LGT RAIN  51  49  92 SE13      29.89F FOG
DEL RIO        CLOUDY    58  56  93 E7        29.88S FOG
EL PASO        MOCLDY    54  41  61 CALM      29.91R
HOUSTON INT    CLOUDY    59  56  89 SE7       30.03S
LUBBOCK        MOCLDY    44  44 100 S10       29.85F FOG     WCI  39
SAN ANGELO     CLOUDY    58  54  86 S14       29.88S
SAN ANTONIO    CLOUDY    63  60  90 S6        29.94F
WACO           CLOUDY    57  55  93 SE13      29.92F
WICHITA FALLS  NOT AVBL
$$
...OTHER LOCATIONS IN NEW MEXICO...

CITY           SKY/WX    TMP DP  RH WIND       PRES   REMARKS
ALAMAGORDO     CLOUDY    46  45  93 CALM      29.92R
ALBUQUERQUE    PTCLDY    37  35  92 NW3       29.95R
CANNON AFB     PTCLDY    39 N/A N/A SW15      29.83S WCI  31
CLOVIS         CLOUDY    39  37  93 SW20      29.82F WCI  30
HOLLOMAN AFB   PTCLDY    44  44  99 CALM      29.90R
ROSWELL        CLOUDY    44  41  89 CALM      29.87S
RUIDOSO        MOCLDY    37  34  87 NE3       29.93R
SANTA FE       FOG       33  31  92 CALM      29.91R VSB 1/2
TRUTH OR CONSE MOCLDY    45  42  89 NW7       29.91R
TUCUMCARI      PTCLDY    39  37  92 W10       29.80R WCI  32
$$

USA.gov is the U.S. government's official web portal to all federal, state and local government web resources and services.